When you browse on this site, cookies collect data to enhance your experience and personalize the content and advertising you see.
Visit our Privacy Policy to learn more. By continuing to use the site, you agree to this use of cookies and data.
  • En España
  • Lista de países
  • Para 7 días
  • Temperatura del agua
  • El tiempo en el mapa
  • Informadores
  • user-avatar
    Iniciar sesión

    Tiempo cada hora Vizeu

    Hoy, 31 Mayo, Domingo

    Tiempo Temperatura Precipitaciones Viento Presión Humedad
    00:00 +18°C° 0 mm 1 mps 717 mmHg 81%
    01:00 +18°C° 0 mm 1 mps 717 mmHg 82%
    02:00 +18°C° 0 mm 1 mps 717 mmHg 82%
    03:00 +18°C° 0.1 mm 1 mps 716 mmHg 83%
    04:00 +18°C° 0.1 mm 1 mps 716 mmHg 84%
    05:00 +16°C° 0.1 mm 0 mps 716 mmHg 84%
    06:00 +20°C° 0 mm 1 mps 717 mmHg 77%
    07:00 +22°C° 0 mm 1 mps 717 mmHg 69%
    08:00 +25°C° 0 mm 1 mps 718 mmHg 62%
    09:00 +26°C° 0.2 mm 1 mps 718 mmHg 57%
    10:00 +27°C° 0.2 mm 1 mps 718 mmHg 51%
    11:00 +29°C° 0.2 mm 1 mps 718 mmHg 46%
    12:00 +28°C° 0.6 mm 2 mps 717 mmHg 48%
    13:00 +28°C° 0.6 mm 2 mps 717 mmHg 50%
    14:00 +28°C° 0.6 mm 2 mps 717 mmHg 52%
    15:00 +25°C° 3.9 mm 2 mps 716 mmHg 63%
    16:00 +21°C° 3.9 mm 2 mps 716 mmHg 75%
    17:00 +19°C° 3.9 mm 1 mps 716 mmHg 86%
    18:00 +18°C° 0.8 mm 1 mps 717 mmHg 88%
    19:00 +18°C° 0.8 mm 1 mps 717 mmHg 90%
    20:00 +18°C° 0.8 mm 1 mps 718 mmHg 92%
    21:00 +16°C° 0.1 mm 1 mps 718 mmHg 91%
    22:00 +16°C° 0.1 mm 1 mps 717 mmHg 91%
    23:00 +16°C° 0.1 mm 1 mps 717 mmHg 91%

    Mañana, 1 Junio, Lunes

    Tiempo Temperatura Precipitaciones Viento Presión Humedad
    00:00 +16°C° 0 mm 1 mps 717 mmHg 91%
    01:00 +16°C° 0 mm 1 mps 717 mmHg 90%
    02:00 +16°C° 0 mm 1 mps 717 mmHg 90%
    03:00 +16°C° 0 mm 1 mps 717 mmHg 89%
    04:00 +16°C° 0 mm 1 mps 717 mmHg 89%
    05:00 +16°C° 0 mm 1 mps 718 mmHg 88%
    06:00 +19°C° 0 mm 1 mps 718 mmHg 82%
    07:00 +21°C° 0 mm 1 mps 719 mmHg 75%
    08:00 +23°C° 0 mm 1 mps 719 mmHg 69%
    09:00 +24°C° 0.1 mm 1 mps 719 mmHg 65%
    10:00 +25°C° 0.1 mm 1 mps 719 mmHg 61%
    11:00 +25°C° 0.1 mm 2 mps 719 mmHg 57%
    12:00 +26°C° 0.2 mm 2 mps 719 mmHg 56%
    13:00 +26°C° 0.2 mm 2 mps 719 mmHg 55%
    14:00 +26°C° 0.2 mm 2 mps 719 mmHg 54%
    15:00 +25°C° 0.2 mm 2 mps 719 mmHg 59%
    16:00 +25°C° 0.2 mm 2 mps 718 mmHg 63%
    17:00 +24°C° 0.2 mm 2 mps 718 mmHg 67%
    18:00 +22°C° 0.1 mm 1 mps 718 mmHg 75%
    19:00 +20°C° 0.1 mm 1 mps 719 mmHg 82%
    20:00 +17°C° 0.1 mm 0 mps 719 mmHg 90%
    21:00 +16°C° 0 mm 0 mps 719 mmHg 90%
    22:00 +16°C° 0 mm 0 mps 719 mmHg 90%
    23:00 +16°C° 0 mm 0 mps 718 mmHg 89%

    Pasado mañana, 2 Junio, Martes

    Tiempo Temperatura Precipitaciones Viento Presión Humedad
    00:00 +18°C° 0 mm 1 mps 718 mmHg 89%
    01:00 +18°C° 0 mm 1 mps 718 mmHg 89%
    02:00 +18°C° 0 mm 1 mps 718 mmHg 88%
    03:00 +18°C° 0 mm 1 mps 718 mmHg 87%
    04:00 +18°C° 0 mm 1 mps 718 mmHg 85%
    05:00 +18°C° 0 mm 1 mps 718 mmHg 84%
    06:00 +20°C° 0 mm 1 mps 719 mmHg 77%
    07:00 +22°C° 0 mm 1 mps 719 mmHg 69%
    08:00 +24°C° 0 mm 1 mps 720 mmHg 61%
    09:00 +25°C° 0 mm 1 mps 720 mmHg 57%
    10:00 +26°C° 0 mm 1 mps 720 mmHg 52%
    11:00 +27°C° 0 mm 2 mps 719 mmHg 48%
    12:00 +27°C° 0.3 mm 2 mps 719 mmHg 52%
    13:00 +26°C° 0.3 mm 2 mps 719 mmHg 56%
    14:00 +26°C° 0.3 mm 3 mps 718 mmHg 60%
    15:00 +24°C° 0.8 mm 3 mps 718 mmHg 67%
    16:00 +22°C° 0.8 mm 3 mps 718 mmHg 73%
    17:00 +21°C° 0.8 mm 3 mps 717 mmHg 80%
    18:00 +20°C° 0.2 mm 2 mps 717 mmHg 86%
    19:00 +18°C° 0.2 mm 2 mps 717 mmHg 91%
    20:00 +18°C° 0.2 mm 1 mps 718 mmHg 97%
    21:00 +16°C° 0 mm 1 mps 717 mmHg 97%
    22:00 +16°C° 0 mm 1 mps 717 mmHg 97%
    23:00 +16°C° 0 mm 1 mps 717 mmHg 97%

    3 Junio, Miércoles

    Tiempo Temperatura Precipitaciones Viento Presión Humedad
    00:00 +16°C° 0 mm 1 mps 717 mmHg 97%
    01:00 +16°C° 0 mm 1 mps 716 mmHg 97%
    02:00 +16°C° 0 mm 1 mps 716 mmHg 97%
    03:00 +16°C° 0 mm 1 mps 716 mmHg 97%
    04:00 +16°C° 0 mm 1 mps 716 mmHg 97%
    05:00 +16°C° 0 mm 1 mps 716 mmHg 96%
    06:00 +16°C° 0.1 mm 1 mps 716 mmHg 95%
    07:00 +17°C° 0.1 mm 2 mps 716 mmHg 93%
    08:00 +17°C° 0.1 mm 2 mps 716 mmHg 91%
    09:00 +18°C° 0.2 mm 2 mps 716 mmHg 85%
    10:00 +19°C° 0.2 mm 2 mps 716 mmHg 79%
    11:00 +20°C° 0.2 mm 3 mps 716 mmHg 74%
    12:00 +19°C° 0.4 mm 3 mps 715 mmHg 77%
    13:00 +19°C° 0.4 mm 3 mps 715 mmHg 80%
    14:00 +18°C° 0.4 mm 4 mps 714 mmHg 84%
    15:00 +17°C° 0.8 mm 3 mps 714 mmHg 87%
    16:00 +17°C° 0.8 mm 2 mps 714 mmHg 91%
    17:00 +16°C° 0.8 mm 1 mps 713 mmHg 94%
    18:00 +16°C° 0.4 mm 1 mps 713 mmHg 95%
    19:00 +16°C° 0.4 mm 1 mps 713 mmHg 95%
    20:00 +15°C° 0.4 mm 1 mps 713 mmHg 96%
    21:00 +15°C° 0.7 mm 1 mps 713 mmHg 96%
    22:00 +15°C° 0.7 mm 1 mps 712 mmHg 97%
    23:00 +15°C° 0.7 mm 1 mps 712 mmHg 97%

    4 Junio, Jueves

    Tiempo Temperatura Precipitaciones Viento Presión Humedad
    00:00 +15°C° 2.1 mm 1 mps 712 mmHg 97%
    01:00 +15°C° 2.1 mm 1 mps 711 mmHg 98%
    02:00 +15°C° 2.1 mm 1 mps 710 mmHg 98%
    03:00 +15°C° 2.9 mm 1 mps 710 mmHg 98%
    04:00 +15°C° 2.9 mm 1 mps 710 mmHg 97%
    05:00 +15°C° 2.9 mm 1 mps 710 mmHg 97%
    06:00 +15°C° 1.5 mm 1 mps 710 mmHg 95%
    07:00 +16°C° 1.5 mm 1 mps 710 mmHg 94%
    08:00 +16°C° 1.5 mm 1 mps 710 mmHg 92%
    09:00 +18°C° 0.7 mm 1 mps 711 mmHg 89%
    10:00 +18°C° 0.7 mm 2 mps 711 mmHg 86%
    11:00 +19°C° 0.7 mm 2 mps 711 mmHg 83%
    12:00 +18°C° 1.7 mm 2 mps 711 mmHg 85%
    13:00 +17°C° 1.7 mm 2 mps 710 mmHg 87%
    14:00 +17°C° 1.7 mm 3 mps 710 mmHg 89%
    15:00 +16°C° 1.7 mm 3 mps 710 mmHg 90%
    16:00 +16°C° 1.7 mm 3 mps 710 mmHg 90%
    17:00 +16°C° 1.7 mm 3 mps 710 mmHg 90%
    18:00 +15°C° 0.5 mm 2 mps 710 mmHg 91%
    19:00 +14°C° 0.5 mm 2 mps 710 mmHg 92%
    20:00 +14°C° 0.5 mm 1 mps 710 mmHg 93%
    21:00 +14°C° 0.8 mm 1 mps 710 mmHg 94%
    22:00 +13°C° 0.8 mm 1 mps 710 mmHg 94%
    23:00 +13°C° 0.8 mm 1 mps 710 mmHg 95%

    5 Junio, Viernes

    Tiempo Temperatura Precipitaciones Viento Presión Humedad
    00:00 +13°C° 0.4 mm 2 mps 710 mmHg 95%
    01:00 +12°C° 0.4 mm 2 mps 710 mmHg 95%
    02:00 +12°C° 0.4 mm 2 mps 710 mmHg 95%
    03:00 +12°C° 0.2 mm 2 mps 710 mmHg 95%
    04:00 +12°C° 0.2 mm 2 mps 710 mmHg 94%
    05:00 +13°C° 0.2 mm 2 mps 711 mmHg 94%
    06:00 +14°C° 0.5 mm 2 mps 711 mmHg 90%
    07:00 +13°C° 0.5 mm 3 mps 712 mmHg 86%
    08:00 +14°C° 0.5 mm 4 mps 712 mmHg 82%
    09:00 +15°C° 0.6 mm 4 mps 712 mmHg 77%
    10:00 +16°C° 0.6 mm 5 mps 713 mmHg 72%
    11:00 +17°C° 0.6 mm 5 mps 713 mmHg 66%
    12:00 +17°C° 0.3 mm 6 mps 713 mmHg 66%
    13:00 +17°C° 0.3 mm 6 mps 713 mmHg 65%
    14:00 +17°C° 0.3 mm 6 mps 713 mmHg 64%
    15:00 +16°C° 0.7 mm 6 mps 713 mmHg 71%
    16:00 +15°C° 0.7 mm 5 mps 713 mmHg 77%
    17:00 +14°C° 0.7 mm 5 mps 713 mmHg 84%
    18:00 +13°C° 0.3 mm 5 mps 713 mmHg 87%
    19:00 +13°C° 0.3 mm 4 mps 713 mmHg 90%
    20:00 +12°C° 0.3 mm 4 mps 713 mmHg 93%
    21:00 +12°C° 1.4 mm 4 mps 713 mmHg 94%
    22:00 +12°C° 1.4 mm 4 mps 713 mmHg 94%
    23:00 +12°C° 1.4 mm 4 mps 714 mmHg 94%
    Mostrar más